Location: Cardiff
(53.7833°N, 113.6000°W)
Time: 21:33:07
(UTC+00:00)

Oscar 19 - Pass Details

Date: 03 December 2023
Orbit: 771 x 789 km, 98.9° (Epoch: 04 March)

Event Time Altitude Azimuth Distance (km) Brightness Sun altitude
Rises 11:24:27 0° 23° (NNE) 3,271 14.3 -35.2°
Reaches altitude 10° 11:27:09 10° 36° (NE) 2,342 13.6 -34.8°
Maximum altitude 11:31:26 26° 92° (E) 1,511 12.6 -34.2°
Drops below altitude 10° 11:35:42 10° 149° (SSE) 2,337 13.3 -33.6°
Sets 11:38:23 0° 162° (SSE) 3,263 14.0 -33.2°
